15 daagse weersverwachting Kristiansund (NO)

  • Overzicht
  • Per uur
  • 15 dagen
  • Extra
  • Vergelijk
  • Kaarten
  • Dagkaart
  • Meer »
  • Info
  • Statistieken
  • Directe link
    Temp 6h Neerslag Wind  
 03:24     23:41    Daglengte: 20:17 Vandaag
02:00
12°
2.6 mm
2
08:00
12°
12.6 mm
2
14:00
15°
 
4
20:00
15°
 
3
 03:24     23:41    Daglengte: 20:17 Morgen
02:00
12°
6.6 mm
3
08:00
15°
 
3
14:00
15°
3.5 mm
8
20:00
13°
4.0 mm
4
 03:24     23:42    Daglengte: 20:18 Woensdag 19 Jun
02:00
12°
4.8 mm
3
warningclass
08:00
14°
4.4 mm
2
14:00
14°
13.6 mm
4
20:00
14°
 
4
Locatie info
Region: MÝre og Romsdal
Latitude: 63.1205°N
Longitude: 7.7141°E
1 masl
Postcode: 6509
Temp/Neerslag /Baro Onweer/Dauwpunt
    Temp Baro 1h Neerslag Dauwpunt Wind UV Bewolking  
 03:24     23:41    Daglengte: 20:17 Vandaag
02:00
12°
1014.4 hPa 2.6 mm
48%
11.2°
2
Windvlaag: 3 km/h
90%
03:00
12°
1014.5 hPa 2.3 mm
82%
11.2°
2
Windvlaag: 3.2 km/h
90%
04:00
12°
1014.5 hPa 2.2 mm
82%
11.2°
3
Windvlaag: 4 km/h
90%
05:00
12°
1014.3 hPa 3.1 mm
82%
10.7°
3
Windvlaag: 3.4 km/h
89%
06:00
12°
1014.2 hPa 2.7 mm
82%
10.3°
3
Windvlaag: 2.6 km/h
85%
07:00
12°
1014.3 hPa 2.4 mm
82%
10.6°
2
Windvlaag: 1.7 km/h
82%
08:00
12°
1014.4 hPa
81%
10.3°
2
Windvlaag: 2.2 km/h
82%
09:00
13°
1014.3 hPa
77%
9.5°
2
Windvlaag: 2.4 km/h
68%
10:00
14°
1014.1 hPa
70%
8.8°
1
Windvlaag: 2.6 km/h
48%
11:00
14°
1013.7 hPa
15%
8.4°
2
Windvlaag: 3.5 km/h
57%
12:00
14°
1013.4 hPa
14%
7.6°
3
Windvlaag: 4.4 km/h
31%
13:00
15°
1013.1 hPa
14%
8.0°
4
Windvlaag: 4.8 km/h
11%
14:00
15°
1012.7 hPa
14%
7.5°
4
Windvlaag: 5.1 km/h
10%
15:00
16°
1012.0 hPa
14%
7.6°
5
Windvlaag: 5.6 km/h
28%
16:00
16°
1011.1 hPa
14%
7.1°
5
Windvlaag: 6.1 km/h
36%
17:00
16°
1010.0 hPa
14%
6.9°
6
Windvlaag: 4.9 km/h
13%
18:00
16°
1009.2 hPa
14%
7.6°
5
Windvlaag: 4.4 km/h
61%
19:00
16°
1008.7 hPa
14%
9.8°
3
Windvlaag: 3.1 km/h
65%
20:00
15°
1008.3 hPa
23%
11.1°
3
Windvlaag: 1.7 km/h
83%
21:00
15°
1008.6 hPa 3.1 mm
79%
11.4°
2
Windvlaag: 2.2 km/h
84%
22:00
14°
1008.7 hPa 3.5 mm
82%
11.6°
2
Windvlaag: 3.7 km/h
73%
23:00
13°
1009.0 hPa
82%
11.5°
1
Windvlaag: 2.1 km/h
50%
 03:24     23:41    Daglengte: 20:17 Morgen
00:00
13°
1009.1 hPa
82%
11.5°
1
Windvlaag: 0.7 km/h
33%
01:00
12°
1009.1 hPa
82%
11.4°
2
Windvlaag: 2.2 km/h
25%
02:00
12°
1008.9 hPa
82%
11.0°
3
Windvlaag: 3.1 km/h
4%
03:00
13°
1008.7 hPa
27%
9.8°
3
Windvlaag: 5 km/h
1%
04:00
13°
1008.4 hPa
29%
9.4°
3
Windvlaag: 5.2 km/h
4%
05:00
13°
1008.1 hPa
59%
9.3°
3
Windvlaag: 4.9 km/h
23%
06:00
13°
1007.8 hPa
64%
9.1°
3
Windvlaag: 4.7 km/h
18%
07:00
14°
1007.4 hPa
60%
9.1°
3
Windvlaag: 5.4 km/h
19%
08:00
15°
1007.2 hPa
76%
8.9°
3
Windvlaag: 6.6 km/h
45%
09:00
15°
1007.2 hPa
82%
8.4°
3
Windvlaag: 7.9 km/h
60%
10:00
15°
1007.1 hPa
75%
7.9°
5
Windvlaag: 8.4 km/h
29%
11:00
15°
1007.2 hPa
80%
8.3°
4
Windvlaag: 9.3 km/h
42%
12:00
15°
1007.4 hPa
82%
8.3°
6
Windvlaag: 9.7 km/h
42% warningclass
13:00
15°
1007.7 hPa
76%
10.1°
6
Windvlaag: 9.1 km/h
30% warningclass
14:00
15°
1008.0 hPa 3.5 mm
77%
10.0°
8
Windvlaag: 9.6 km/h
23%
15:00
14°
1008.2 hPa
74%
9.8°
8
Windvlaag: 11 km/h
22%
16:00
14°
1008.3 hPa
34%
9.7°
7
Windvlaag: 10.9 km/h
26%
17:00
14°
1008.2 hPa
33%
9.3°
7
Windvlaag: 10.8 km/h
35%
18:00
14°
1008.1 hPa
33%
9.9°
6
Windvlaag: 10.1 km/h
23%
19:00
14°
1008.2 hPa
33%
10.0°
5
Windvlaag: 8.6 km/h
41%
20:00
13°
1008.1 hPa 4.0 mm
75%
9.7°
4
Windvlaag: 6.9 km/h
62%
21:00
13°
1008.1 hPa
73%
9.6°
3
Windvlaag: 5.6 km/h
65%
22:00
12°
1008.1 hPa
22%
10.0°
2
Windvlaag: 4.9 km/h
65%
23:00
12°
1008.4 hPa
25%
9.9°
1
Windvlaag: 2.9 km/h
72%
 03:24     23:42    Daglengte: 20:18 Woensdag 19 Jun
00:00
12°
1008.2 hPa
34%
10.4°
2
Windvlaag: 2.2 km/h
63%
01:00
12°
1007.9 hPa
100%
10.3°
3
Windvlaag: 3.6 km/h
87%
02:00
12°
1007.9 hPa 4.8 mm
100%
10.3°
3
Windvlaag: 4.7 km/h
44% warningclass
03:00
12°
1007.7 hPa 4.4 mm
97%
8.7°
3
Windvlaag: 5.2 km/h
70%
04:00
12°
1007.7 hPa
35%
8.3°
3
Windvlaag: 4.6 km/h
54%
05:00
12°
1007.7 hPa
42%
8.1°
3
Windvlaag: 4.3 km/h
49%
06:00
12°
1007.7 hPa
94%
8.2°
2
Windvlaag: 3.7 km/h
65%
07:00
13°
1007.9 hPa
91%
8.0°
2
Windvlaag: 3.8 km/h
56%
08:00
14°
1008.4 hPa
42%
7.9°
2
Windvlaag: 4.1 km/h
66%
09:00
14°
1009.0 hPa
100%
8.2°
3
Windvlaag: 5.1 km/h
69%
10:00
15°
1009.3 hPa 6.6 mm
97%
8.2°
2
Windvlaag: 4.9 km/h
53%
11:00
14°
1009.7 hPa 7.0 mm
95%
8.2°
3
Windvlaag: 5.3 km/h
65%
12:00
14°
1010.0 hPa
90%
8.7°
4
Windvlaag: 5.6 km/h
70%
13:00
14°
1010.5 hPa
45%
10.1°
4
Windvlaag: 7.5 km/h
45%
14:00
14°
1010.6 hPa
45%
11.6°
4
Windvlaag: 7.5 km/h
40%
15:00
14°
1010.6 hPa
45%
11.6°
4
Windvlaag: 5.9 km/h
35%
16:00
14°
1010.4 hPa
44%
11.6°
4
Windvlaag: 5.8 km/h
34%
17:00
14°
1010.2 hPa
85%
11.5°
4
Windvlaag: 5.2 km/h
54%
18:00
14°
1009.9 hPa
40%
11.2°
4
Windvlaag: 3.3 km/h
72%
19:00
14°
1009.7 hPa
37%
11.2°
4
Windvlaag: 2.2 km/h
77%
20:00
14°
1009.4 hPa
33%
11.1°
4
Windvlaag: 0.2 km/h
68%
21:00
14°
1008.8 hPa
23%
11.0°
4
Windvlaag: 2.7 km/h
88%
22:00
14°
1008.2 hPa
21%
11.0°
4
Windvlaag: 3.8 km/h
86%
23:00
13°
1007.6 hPa
21%
11.0°
4
Windvlaag: 5.4 km/h
89%
 03:24     23:42    Daglengte: 20:18 Donderdag 20 Jun
00:00
13°
1006.9 hPa
21%
11.0°
4
Windvlaag: 8 km/h
95%
01:00
13°
1006.1 hPa
21%
11.0°
4
Windvlaag: 10.1 km/h
98%
Temp/Neerslag /Baro Onweer/Dauwpunt
    Temp Baro Neerslag Dauwpunt Wind Bewolking  
 03:24     23:41    Daglengte: 20:17 Vandaag
02:00
12°
1014.4 hPa 2.6 mm 11.2°
2
90%
05:00
12°
1014.3 hPa 7.6 mm 10.7°
3
89%
08:00
12°
1014.4 hPa 5.0 mm 10.3°
2
82%
11:00
14°
1013.7 hPa   8.4°
2
57%
14:00
15°
1012.7 hPa   7.5°
4
10%
17:00
16°
1010.0 hPa   6.9°
6
13%
20:00
15°
1008.3 hPa   11.1°
3
83%
23:00
13°
1009.0 hPa 6.6 mm 11.5°
1
50%
 03:24     23:41    Daglengte: 20:17 Morgen
02:00
12°
1008.9 hPa   11.0°
3
4%
05:00
13°
1008.1 hPa   9.3°
3
23%
08:00
15°
1007.2 hPa   8.9°
3
45%
11:00
15°
1007.2 hPa   8.3°
4
42%
14:00
15°
1008.0 hPa 3.5 mm 10.0°
8
23%
17:00
14°
1008.2 hPa   9.3°
7
35%
20:00
13°
1008.1 hPa 4.0 mm 9.7°
4
62%
23:00
12°
1008.4 hPa   9.9°
1
72%
 03:24     23:42    Daglengte: 20:18 Woensdag 19 Jun
02:00
12°
1007.9 hPa 4.8 mm 10.3°
3
44% warningclass
05:00
12°
1007.7 hPa 4.4 mm 8.1°
3
49%
08:00
14°
1008.4 hPa   7.9°
2
66%
11:00
14°
1009.7 hPa 13.6 mm 8.2°
3
65%
14:00
14°
1010.6 hPa   11.6°
4
40%
17:00
14°
1010.2 hPa   11.5°
4
54%
20:00
14°
1009.4 hPa   11.1°
4
68%
23:00
13°
1007.6 hPa   11.0°
4
89%
 03:24     23:42    Daglengte: 20:18 Donderdag 20 Jun
02:00
13°
1005.4 hPa   11.1°
4
93%
05:00
13°
1002.7 hPa 23.9 mm 11.0°
3
88%
08:00
13°
1001.1 hPa 24.3 mm 11.1°
2
87%
11:00
14°
1001.8 hPa 24.3 mm 11.8°
5
82%
14:00
16°
1002.5 hPa 24.4 mm 12.4°
7
78%
17:00
15°
1003.6 hPa 24.6 mm 12.0°
7
70%
20:00
14°
1004.9 hPa 25.9 mm 11.3°
8
62%
23:00
13°
1005.4 hPa 25.9 mm 11.1°
5
76%
 03:24     23:42    Daglengte: 20:18 Vrijdag 21 Jun
02:00
12°
1005.8 hPa 26.0 mm 10.9°
2
91%
05:00
12°
1006.5 hPa 26.3 mm 10.8°
2
89%
08:00
12°
1007.0 hPa 26.9 mm 10.6°
2
87%
11:00
13°
1008.0 hPa 28.1 mm 10.8°
4
82%
14:00
14°
1008.9 hPa 28.5 mm 10.8°
5
77%
17:00
14°
1008.9 hPa 28.6 mm 10.6°
4
77%
20:00
13°
1008.9 hPa 28.6 mm 10.6°
3
78%
23:00
12°
1009.2 hPa 29.3 mm 9.9°
3
72%
 03:24     23:42    Daglengte: 20:18 Zaterdag 22 Jun
02:00
10°
1009.5 hPa 29.8 mm 9.1°
4
67%
05:00
11°
1009.8 hPa 31.9 mm 9.0°
6
70%
08:00
11°
1010.1 hPa 32.5 mm 8.9°
7
72%
11:00
12°
1011.9 hPa 33.3 mm 8.8°
8
72%
14:00
13°
1013.7 hPa 33.5 mm 8.5°
9
71%
17:00
12°
1014.8 hPa 33.6 mm 8.8°
9
69%
20:00
12°
1015.7 hPa 33.6 mm 9.0°
9
67%
23:00
11°
1016.2 hPa 33.7 mm 8.6°
9
68%
 03:25     23:42    Daglengte: 20:17 Zondag 23 Jun
02:00
10°
1016.5 hPa 33.8 mm 8.2°
8
70%
05:00
10°
1019.3 hPa 34.0 mm 8.1°
7
70%
08:00
11°
1022.2 hPa 34.1 mm 7.9°
7
70%
11:00
12°
1022.9 hPa 34.2 mm 8.4°
7
67%
14:00
13°
1023.7 hPa 34.2 mm 8.8°
7
64%
17:00
13°
1023.6 hPa 34.2 mm 8.5°
6
73%
20:00
12°
1023.5 hPa 34.2 mm 8.4°
5
81%
23:00
11°
1023.5 hPa   8.8°
4
71%
 03:25     23:42    Daglengte: 20:17 Maandag 24 Jun
02:00
10°
1023.4 hPa 68.6 mm 9.0°
3
61%
08:00
11°
1022.8 hPa 68.7 mm 8.5°
3
75%
14:00
14°
1023.4 hPa 68.9 mm 9.4°
7
67%
20:00
14°
1021.8 hPa 68.9 mm 10.1°
6
74%
 03:26     23:42    Daglengte: 20:16 Dinsdag 25 Jun
02:00
11°
1022.6 hPa 68.9 mm 9.7°
4
75%
08:00
11°
1021.8 hPa 68.9 mm 8.8°
4
84%
14:00
13°
1023.0 hPa 68.9 mm 9.1°
7
81%
20:00
13°
1024.3 hPa 68.9 mm 9.1°
7
63%
 03:27     23:42    Daglengte: 20:15 Woensdag 26 Jun
02:00
10°
1024.7 hPa 68.9 mm 8.8°
5
59%
08:00
11°
1022.2 hPa 68.9 mm 7.7°
5
85%
14:00
11°
1013.5 hPa 68.9 mm 7.4°
10
1%
20:00
14°
1018.6 hPa 0.6 mm 7.9°
2
46%
 03:28     23:41    Daglengte: 20:13 Donderdag 27 Jun
02:00
11°
1017.9 hPa 0.5 mm 8.5°
0
43%
08:00
13°
1015.8 hPa 0.6 mm 8.1°
0
51%
14:00
16°
1014.1 hPa 0.5 mm 7.6°
1
45%
20:00
15°
1012.7 hPa 0.4 mm 8.3°
2
52%
 03:29     23:40    Daglengte: 20:11 Vrijdag 28 Jun
02:00
11°
1012.2 hPa 0.4 mm 8.9°
0
48%
08:00
13°
1010.8 hPa 1.2 mm 9.0°
1
60%
14:00
16°
1010.1 hPa 0.7 mm 8.8°
2
58%
20:00
14°
1009.6 hPa 0.6 mm 8.9°
2
51%
 03:30     23:39    Daglengte: 20:09 Zaterdag 29 Jun
02:00
11°
1009.6 hPa 0.7 mm 8.8°
1
52%
08:00
13°
1009.0 hPa 0.6 mm 8.6°
1
52%
14:00
15°
1009.0 hPa 0.6 mm 8.4°
2
55%
20:00
14°
1009.1 hPa 0.4 mm 8.5°
2
53%
 03:31     23:38    Daglengte: 20:07 Zondag 30 Jun
02:00
11°
1009.5 hPa 0.3 mm 9.0°
0
51%
08:00
13°
1008.7 hPa 0.6 mm 8.7°
0
53%
14:00
16°
1008.3 hPa 0.9 mm 8.4°
2
55%
20:00
14°
1008.5 hPa 0.9 mm 8.7°
2
49%
 03:33     23:37    Daglengte: 20:04 Maandag 01 Jul
02:00
11°
1009.2 hPa 1.1 mm 8.9°
1
44%
08:00
13°
1009.2 hPa 0.4 mm 8.6°
1
41%
14:00
15°
1009.7 hPa 0.6 mm 8.0°
2
47%
20:00
14°
1010.3 hPa 0.5 mm 8.3°
2
48%
  CAPE Lifted Index Hail Supercell Tornado SRH 3km CL BTM PRES CL TOP PRES Swiss DWD icon SMHI TS
 03:24     23:41    Daglengte: 20:17 Vandaag
02:00 1 J/kg 5.2 K 0 % 0 % 0 % 0 m²/s² 0 0 5.29 61
03:00 0 J/kg 5.2 K 0 % 0 % 0 % 0 m²/s² 0 0 5.44 61
04:00 0 J/kg 5.4 K 0 % 0 % 0 % 0 m²/s² 0 0 5.7 61
05:00 0 J/kg 5.8 K 0 % 0 % 0 % 0 m²/s² 0 0 6.25 61
06:00 0 J/kg 5.5 K 0 % 0 % 0 % 0 m²/s² 0 0 6.28 61
07:00 32 J/kg 4.4 K 0 % 0 % 0 % 0 m²/s² 0 0 5.21 61
08:00 32 J/kg 4.7 K 0 % 0 % 0 % 0 m²/s² 0 0 5.66 3
09:00 0 J/kg 6.3 K 0 % 0 % 0 % 0 m²/s² 0 0 7.98 3
10:00 0 J/kg 7.0 K 0 % 0 % 0 % 0 m²/s² 0 0 10.99 3
11:00 1 J/kg 6.6 K 0 % 0 % 0 % 0 m²/s² 0 0 11.13 3
12:00 0 J/kg 6.1 K 0 % 0 % 0 % 0 m²/s² 0 0 10.3 2
13:00 0 J/kg 5.4 K 0 % 0 % 0 % 0 m²/s² 0 0 9.51 1
14:00 0 J/kg 4.6 K 0 % 0 % 0 % 0 m²/s² 0 0 8.02 0
15:00 0 J/kg 3.4 K 0 % 0 % 0 % 0 m²/s² 0 0 5.59 0
16:00 0 J/kg 2.4 K 0 % 0 % 0 % 0 m²/s² 0 0 3.36 0
17:00 35 J/kg 1.6 K 0 % 0 % 0 % 0 m²/s² 0 0 2.59 0
18:00 40 J/kg 0.6 K 0 % 0 % 0 % 0 m²/s² 0 0 0.78 2
19:00 65 J/kg 0.8 K 0 % 0 % 0 % 0 m²/s² 0 0 1.01 0
20:00 219 J/kg -0.9 K 0 % 0 % 0 % 0 m²/s² 0 0 -0.6 3
21:00 423 J/kg -1.7 K 0 % 0 % 0 % 0 m²/s² 0 0 -0.65 3
22:00 386 J/kg -1.4 K 0 % 0 % 0 % 0 m²/s² 0 0 -0.2 80
23:00 214 J/kg -0.9 K 0 % 0 % 0 % 0 m²/s² 0 0 0.45 61
 03:24     23:41    Daglengte: 20:17 Morgen
00:00 177 J/kg -0.9 K 0 % 0 % 0 % 0 m²/s² 0 0 0.93 61
01:00 223 J/kg -0.7 K 0 % 0 % 0 % 0 m²/s² 0 0 0.62 63
02:00 279 J/kg -0.5 K 0 % 0 % 0 % 0 m²/s² 0 0 1.99 61
03:00 88 J/kg 0.9 K 0 % 0 % 0 % 0 m²/s² 0 0 3.9 2
04:00 20 J/kg 1.8 K 0 % 0 % 0 % 0 m²/s² 0 0 4.5 1
05:00 9 J/kg 2.0 K 0 % 0 % 0 % 0 m²/s² 0 0 4.13 2
06:00 41 J/kg 1.5 K 0 % 0 % 0 % 0 m²/s² 0 0 3.63 3
07:00 95 J/kg 0.5 K 0 % 0 % 0 % 0 m²/s² 0 0 2.45 3
08:00 263 J/kg -0.9 K 0 % 0 % 0 % 0 m²/s² 0 0 0.69 3
09:00 396 J/kg -1.9 K 0 % 0 % 0 % 0 m²/s² 0 0 -0.94 80
10:00 491 J/kg -2.5 K 0 % 0 % 0 % 0 m²/s² 0 0 -1.84 3
11:00 485 J/kg -2.3 K 0 % 0 % 0 % 0 m²/s² 0 0 -0.35 3
12:00 504 J/kg -1.9 K 0 % 0 % 0 % 0 m²/s² 0 0 0.86 95
13:00 415 J/kg -1.5 K 0 % 0 % 0 % 0 m²/s² 0 0 0.99 95
14:00 274 J/kg -0.9 K 0 % 0 % 0 % 0 m²/s² 0 0 0.99 80
15:00 213 J/kg -0.7 K 0 % 0 % 0 % 0 m²/s² 0 0 1.64 2
16:00 136 J/kg -0.5 K 0 % 0 % 0 % 0 m²/s² 0 0 2.05 1
17:00 75 J/kg -0.6 K 0 % 0 % 0 % 0 m²/s² 0 0 1.83 1
18:00 101 J/kg -0.4 K 0 % 0 % 0 % 0 m²/s² 0 0 1.55 2
19:00 67 J/kg 0.0 K 0 % 0 % 0 % 0 m²/s² 0 0 1.65 3
20:00 30 J/kg 0.1 K 0 % 0 % 0 % 0 m²/s² 0 0 0.25 80
21:00 36 J/kg -0.8 K 0 % 0 % 0 % 0 m²/s² 0 0 -0.53 2
22:00 79 J/kg -1.3 K 0 % 0 % 0 % 0 m²/s² 0 0 -0.97 3
23:00 188 J/kg -1.7 K 0 % 0 % 0 % 0 m²/s² 0 0 -1.25 3
 03:24     23:42    Daglengte: 20:18 Woensdag 19 Jun
00:00 247 J/kg -0.7 K 0 % 0 % 0 % 0 m²/s² 0 0 0.47 3
01:00 269 J/kg 0.4 K 0 % 0 % 0 % 0 m²/s² 0 0 1.33 80
02:00 152 J/kg 2.0 K 0 % 0 % 0 % 0 m²/s² 0 0 3.32 95
03:00 13 J/kg 4.0 K 0 % 0 % 0 % 0 m²/s² 0 0 5.65 3
04:00 0 J/kg 3.9 K 0 % 0 % 0 % 0 m²/s² 0 0 5.91 3
05:00 0 J/kg 4.3 K 0 % 0 % 0 % 0 m²/s² 0 0 6.13 2
06:00 0 J/kg 4.6 K 0 % 0 % 0 % 0 m²/s² 0 0 6.73 3
07:00 21 J/kg 4.2 K 0 % 0 % 0 % 0 m²/s² 0 0 6.36 2
08:00 70 J/kg 4.2 K 0 % 0 % 0 % 0 m²/s² 0 0 6.3 3
09:00 105 J/kg 3.3 K 0 % 0 % 0 % 0 m²/s² 0 0 5.4 3
10:00 145 J/kg 2.5 K 0 % 0 % 0 % 0 m²/s² 0 0 4.45 2
11:00 129 J/kg 2.4 K 0 % 0 % 0 % 0 m²/s² 0 0 4.02 80
12:00 123 J/kg 2.3 K 0 % 0 % 0 % 0 m²/s² 0 0 3.44 2
13:00 147 J/kg 2.0 K 0 % 0 % 0 % 0 m²/s² 0 0 3.17 2
14:00 144 J/kg 1.9 K 0 % 0 % 0 % 0 m²/s² 0 0 3.25 3
15:00 82 J/kg 2.7 K 0 % 0 % 0 % 0 m²/s² 0 0 4.32 3
16:00 28 J/kg 3.6 K 0 % 0 % 0 % 0 m²/s² 0 0 5.28 2
17:00 3 J/kg 4.1 K 0 % 0 % 0 % 0 m²/s² 0 0 5.84 2
18:00 0 J/kg 4.1 K 0 % 0 % 0 % 0 m²/s² 0 0 5.96 3
19:00 0 J/kg 4.3 K 0 % 0 % 0 % 0 m²/s² 0 0 5.92 3
20:00 0 J/kg 4.4 K 0 % 0 % 0 % 0 m²/s² 0 0 5.66 1
21:00 0 J/kg 4.0 K 0 % 0 % 0 % 0 m²/s² 0 0 4.81 3
22:00 0 J/kg 3.8 K 0 % 0 % 0 % 0 m²/s² 0 0 4.4 3
23:00 0 J/kg 3.7 K 0 % 0 % 0 % 0 m²/s² 0 0 4.09 3
 03:24     23:42    Daglengte: 20:18 Donderdag 20 Jun
00:00 0 J/kg 3.0 K 0 % 0 % 0 % 0 m²/s² 0 0 3.33 3
01:00 0 J/kg 3.2 K 0 % 0 % 0 % 0 m²/s² 0 0 3.38 3
Temp Baro Wind Neerslag
  EWN Forecast EWN WRFDA DWD ICON FMI HIRLAM MET Norway GFS
 03:24     23:41    Daglengte: 20:17 Vandaag
02:00 12.4° 1014.4 hPa 2.1 m/s 2.6 mm 11.8° 1013.4 hPa 3.8 m/s 7.4 mm 12.2° 1014.9 hPa 2.1 m/s 2.3 mm 12.6° 1013.9 hPa 1.9 m/s 0.0 mm 12.4° 1014.4 hPa 1.7 m/s 0.0 mm 11.7° 1013.8 hPa 3.6 m/s
05:00 12.0° 1014.3 hPa 3.5 m/s 7.6 mm 12.0° 1012.6 hPa 4.3 m/s 31.4 mm 11.8° 1014.9 hPa 3.3 m/s 4.3 mm 12.2° 1013.9 hPa 3.7 m/s 0.0 mm 11.9° 1014.3 hPa 2.0 m/s 0.6 mm 11.4° 1013.7 hPa 3.6 m/s
08:00 12.5° 1014.4 hPa 2.1 m/s 5.0 mm 13.8° 1012.6 hPa 3.8 m/s 32.1 mm 12.5° 1014.6 hPa 1.1 m/s 0.9 mm 12.1° 1013.7 hPa 2.6 m/s 0.0 mm 12.4° 1014.5 hPa 1.1 m/s 0.0 mm 11.5° 1013.7 hPa 2.2 m/s
11:00 14.0° 1013.7 hPa 2.0 m/s 0.0 mm 14.2° 1012.1 hPa 2.8 m/s 32.1 mm 13.4° 1014.5 hPa 2.1 m/s 0.0 mm 14.1° 1013.3 hPa 0.7 m/s 0.0 mm 15.1° 1013.6 hPa 2.0 m/s 0.0 mm 11.4° 1013.5 hPa 3.0 m/s
14:00 15.1° 1012.7 hPa 4.2 m/s 0.0 mm 14.7° 1010.6 hPa 3.9 m/s 32.1 mm 15.5° 1013.4 hPa 3.5 m/s 0.0 mm 14.5° 1012.0 hPa 3.6 m/s 0.0 mm 16.0° 1012.8 hPa 4.5 m/s 0.0 mm 12.8° 1011.7 hPa 2.7 m/s
17:00 16.1° 1010.0 hPa 5.5 m/s 0.0 mm 17.4° 1009.1 hPa 2.8 m/s 32.1 mm 16.2° 1010.5 hPa 4.6 m/s 0.0 mm 15.1° 1009.0 hPa 5.3 m/s 0.0 mm 17.1° 1010.1 hPa 6.0 m/s 0.0 mm 13.3° 1010.6 hPa 5.3 m/s
20:00 15.2° 1008.3 hPa 2.6 m/s 0.0 mm 14.9° 1008.0 hPa 3.3 m/s 38.1 mm 16.0° 1008.4 hPa 2.2 m/s 0.0 mm 15.0° 1006.6 hPa 3.5 m/s 0.0 mm 15.5° 1009.3 hPa 0.6 m/s 0.3 mm 13.3° 1008.9 hPa 3.7 m/s
23:00 13.1° 1009.0 hPa 1.1 m/s 6.6 mm 13.6° 1008.4 hPa 2.1 m/s 45.1 mm 13.4° 1009.0 hPa 1.9 m/s 2.2 mm 13.2° 1005.8 hPa 0.1 m/s 0.0 mm 12.9° 1009.8 hPa 0.5 m/s 0.0 mm 13.0° 1009.2 hPa 1.7 m/s
 03:24     23:41    Daglengte: 20:17 Morgen
02:00 12.3° 1008.9 hPa 2.6 m/s 0.0 mm 11.4° 1008.0 hPa 3.0 m/s 45.5 mm 12.4° 1009.1 hPa 1.8 m/s 4.7 mm 12.7° 1005.6 hPa 3.8 m/s 0.0 mm 11.4° 1009.7 hPa 1.8 m/s 0.0 mm 11.9° 1008.8 hPa 2.6 m/s
05:00 12.7° 1008.1 hPa 2.9 m/s 0.0 mm 12.1° 1007.4 hPa 3.8 m/s 45.5 mm 12.6° 1008.3 hPa 1.9 m/s 0.0 mm 13.2° 1005.5 hPa 3.0 m/s 0.0 mm 12.1° 1008.8 hPa 2.5 m/s 0.0 mm 11.5° 1008.3 hPa 3.3 m/s
08:00 14.6° 1007.2 hPa 3.1 m/s 0.0 mm 15.3° 1005.8 hPa 5.0 m/s 45.5 mm 14.2° 1006.8 hPa 2.3 m/s 0.1 mm 12.6° 1005.1 hPa 3.0 m/s 0.0 mm 15.2° 1008.3 hPa 4.0 m/s 0.0 mm 13.0° 1007.5 hPa 2.8 m/s
11:00 15.4° 1007.2 hPa 4.4 m/s 0.0 mm 15.8° 1006.0 hPa 3.8 m/s 46.0 mm 15.4° 1007.3 hPa 0.4 m/s 0.6 mm 12.7° 1005.7 hPa 5.4 m/s 0.0 mm 17.7° 1007.5 hPa 7.3 m/s 0.0 mm 13.7° 1007.5 hPa 3.9 m/s
14:00 14.9° 1008.0 hPa 7.7 m/s 3.5 mm 15.6° 1006.2 hPa 7.9 m/s 48.8 mm 15.2° 1008.6 hPa 5.7 m/s 2.6 mm 13.4° 1006.7 hPa 9.0 m/s 0.0 mm 15.5° 1008.3 hPa 8.8 m/s 0.0 mm 13.6° 1007.0 hPa 5.7 m/s
17:00 14.1° 1008.2 hPa 6.7 m/s 0.0 mm 15.0° 1006.7 hPa 6.0 m/s 49.2 mm 13.6° 1008.8 hPa 6.1 m/s 0.1 mm 14.2° 1007.2 hPa 6.5 m/s 0.0 mm 14.5° 1009.4 hPa 10.5 m/s 0.0 mm 13.0° 1006.9 hPa 5.5 m/s
20:00 13.1° 1008.1 hPa 4.2 m/s 4.0 mm 14.4° 1006.1 hPa 2.8 m/s 49.2 mm 12.8° 1008.9 hPa 3.0 m/s 0.2 mm 13.0° 1007.0 hPa 4.9 m/s 0.0 mm 13.3° 1009.3 hPa 5.6 m/s 0.0 mm 12.2° 1006.1 hPa 1.4 m/s
23:00 12.3° 1008.4 hPa 0.9 m/s 0.0 mm 12.6° 1006.6 hPa 1.3 m/s 54.0 mm 12.4° 1008.6 hPa 0.9 m/s 0.0 mm 11.8° 1009.4 hPa 0.1 m/s 0.0 mm 11.6° 1007.0 hPa 3.4 m/s
 03:24     23:42    Daglengte: 20:18 Woensdag 19 Jun
02:00 12.0° 1007.9 hPa 2.7 m/s 4.8 mm 12.6° 1006.0 hPa 2.8 m/s 59.0 mm 11.9° 1007.9 hPa 2.0 m/s 2.3 mm 11.0° 1009.1 hPa 3.2 m/s 0.0 mm 11.8° 1007.1 hPa 2.7 m/s
05:00 11.8° 1007.7 hPa 2.6 m/s 4.4 mm 11.1° 1006.8 hPa 4.4 m/s 59.2 mm 12.3° 1007.5 hPa 0.9 m/s 0.1 mm 11.7° 1009.2 hPa 2.6 m/s 0.0 mm 11.8° 1008.2 hPa 3.1 m/s
08:00 13.7° 1008.4 hPa 2.4 m/s 0.0 mm 13.9° 1006.2 hPa 5.9 m/s 59.2 mm 13.0° 1008.6 hPa 1.5 m/s 0.1 mm 13.9° 1009.1 hPa 2.5 m/s 0.0 mm 13.0° 1008.1 hPa 3.8 m/s
11:00 14.2° 1009.7 hPa 3.5 m/s 13.6 mm 13.7° 1007.6 hPa 4.1 m/s 59.3 mm 13.3° 1010.1 hPa 3.9 m/s 0.7 mm 14.8° 1009.9 hPa 3.0 m/s 0.0 mm 14.0° 1009.1 hPa 3.1 m/s
14:00 14.3° 1010.6 hPa 4.4 m/s 0.0 mm 14.4° 1008.0 hPa 4.2 m/s 61.5 mm 14.0° 1010.7 hPa 3.6 m/s 0.1 mm 14.4° 1011.1 hPa 4.7 m/s 0.0 mm 12.8° 1009.5 hPa 3.6 m/s
17:00 14.4° 1010.2 hPa 4.2 m/s 0.0 mm 14.3° 1007.9 hPa 3.7 m/s 62.1 mm 14.3° 1011.2 hPa 1.5 m/s 0.0 mm 14.6° 1010.3 hPa 5.3 m/s 13.5° 1009.8 hPa 4.3 m/s
20:00 14.2° 1009.4 hPa 3.7 m/s 0.0 mm 13.7° 1006.9 hPa 1.4 m/s 62.2 mm 13.8° 1010.8 hPa 1.1 m/s 0.0 mm 14.7° 1009.5 hPa 6.0 m/s 12.4° 1009.2 hPa 1.4 m/s
23:00 13.4° 1007.6 hPa 3.9 m/s 0.0 mm 13.5° 1005.5 hPa 3.0 m/s 62.2 mm 13.1° 1009.6 hPa 1.9 m/s 0.0 mm 13.5° 1007.5 hPa 5.2 m/s 12.1° 1009.0 hPa 2.7 m/s
 03:24     23:42    Daglengte: 20:18 Donderdag 20 Jun
02:00 12.7° 1005.4 hPa 4.2 m/s 0.0 mm 13.3° 1001.9 hPa 5.2 m/s 62.2 mm 13.1° 1007.0 hPa 2.0 m/s 0.0 mm 12.3° 1005.5 hPa 4.5 m/s 11.7° 1006.4 hPa 4.5 m/s
05:00 12.6° 1002.7 hPa 3.0 m/s 23.9 mm 12.7° 1002.6 hPa 3.0 m/s 11.8° 1003.7 hPa 3.2 m/s 23.9 mm
08:00 12.8° 1001.1 hPa 2.2 m/s 24.3 mm 12.9° 1001.2 hPa 2.2 m/s 11.5° 1000.3 hPa 2.6 m/s 24.3 mm
11:00 14.4° 1001.8 hPa 4.5 m/s 24.3 mm 14.5° 1002.2 hPa 4.8 m/s 12.9° 997.9 hPa 2.3 m/s 24.3 mm
14:00 16.0° 1002.5 hPa 6.9 m/s 24.4 mm 16.1° 1003.1 hPa 7.3 m/s 14.7° 995.7 hPa 2.1 m/s 24.4 mm
17:00 15.1° 1003.6 hPa 7.3 m/s 24.6 mm 15.2° 1004.2 hPa 7.4 m/s 13.1° 997.1 hPa 6.7 m/s 24.6 mm
20:00 14.3° 1004.9 hPa 8.1 m/s 25.9 mm 14.4° 1005.3 hPa 7.5 m/s 12.6° 1000.4 hPa 14.2 m/s 25.9 mm
23:00 13.1° 1005.4 hPa 5.2 m/s 25.9 mm 13.2° 1005.5 hPa 4.8 m/s 11.4° 1004.1 hPa 9.8 m/s 25.9 mm
 03:24     23:42    Daglengte: 20:18 Vrijdag 21 Jun
02:00 11.9° 1005.8 hPa 2.2 m/s 26.0 mm 12.0° 1005.8 hPa 2.0 m/s 11.2° 1005.9 hPa 4.7 m/s 26.0 mm
05:00 12.0° 1006.5 hPa 2.1 m/s 26.3 mm 12.1° 1006.4 hPa 2.2 m/s 11.3° 1007.1 hPa 1.3 m/s 26.3 mm
08:00 12.1° 1007.0 hPa 2.4 m/s 26.9 mm 12.2° 1007.0 hPa 2.4 m/s 11.4° 1007.6 hPa 2.6 m/s 26.9 mm
11:00 13.0° 1008.0 hPa 3.6 m/s 28.1 mm 13.1° 1008.0 hPa 3.7 m/s 11.3° 1008.1 hPa 2.2 m/s 28.1 mm
14:00 13.9° 1008.9 hPa 4.7 m/s 28.5 mm 14.1° 1009.0 hPa 5.0 m/s 12.1° 1008.1 hPa 1.8 m/s 28.5 mm
17:00 13.6° 1008.9 hPa 3.8 m/s 28.6 mm 13.6° 1009.0 hPa 4.0 m/s 12.8° 1008.2 hPa 2.0 m/s 28.6 mm
20:00 13.2° 1008.9 hPa 2.9 m/s 28.6 mm 13.2° 1009.0 hPa 3.0 m/s 12.9° 1008.2 hPa 2.3 m/s 28.6 mm
23:00 11.8° 1009.2 hPa 3.3 m/s 29.3 mm 11.8° 1009.2 hPa 3.5 m/s 11.4° 1009.1 hPa 1.8 m/s 29.3 mm
 03:24     23:42    Daglengte: 20:18 Zaterdag 22 Jun
02:00 10.4° 1009.5 hPa 3.8 m/s 29.8 mm 10.4° 1009.5 hPa 3.9 m/s 10.9° 1009.4 hPa 3.2 m/s 29.8 mm
05:00 10.6° 1009.8 hPa 5.7 m/s 31.9 mm 10.7° 1009.8 hPa 5.8 m/s 10.0° 1010.0 hPa 4.9 m/s 31.9 mm
08:00 11.0° 1010.1 hPa 7.3 m/s 32.5 mm 11.0° 1010.0 hPa 7.7 m/s 10.9° 1011.0 hPa 3.0 m/s 32.5 mm
11:00 12.1° 1011.9 hPa 8.1 m/s 33.3 mm 12.2° 1011.8 hPa 8.4 m/s 12.0° 1012.8 hPa 4.3 m/s 33.3 mm
14:00 13.1° 1013.7 hPa 9.2 m/s 33.5 mm 13.3° 1013.6 hPa 9.1 m/s 11.0° 1015.1 hPa 10.7 m/s 33.5 mm
17:00 12.4° 1014.8 hPa 9.4 m/s 33.6 mm 12.6° 1014.5 hPa 9.2 m/s 10.6° 1017.0 hPa 11.0 m/s 33.6 mm
20:00 11.8° 1015.7 hPa 9.2 m/s 33.6 mm 11.9° 1015.5 hPa 9.4 m/s 10.8° 1018.5 hPa 7.2 m/s 33.6 mm
23:00 10.9° 1016.2 hPa 8.7 m/s 33.7 mm 11.0° 1015.9 hPa 9.0 m/s 10.3° 1019.8 hPa 5.1 m/s 33.7 mm
 03:25     23:42    Daglengte: 20:17 Zondag 23 Jun
02:00 10.1° 1016.5 hPa 8.2 m/s 33.8 mm 10.1° 1016.2 hPa 8.6 m/s 9.7° 1020.0 hPa 3.4 m/s 33.8 mm
05:00 10.4° 1019.3 hPa 7.4 m/s 34.0 mm 10.6° 1019.3 hPa 7.9 m/s 9.3° 1019.6 hPa 2.3 m/s 34.0 mm
08:00 10.9° 1022.2 hPa 6.8 m/s 34.1 mm 11.0° 1022.4 hPa 7.2 m/s 10.1° 1019.8 hPa 1.8 m/s 34.1 mm
11:00 12.0° 1022.9 hPa 6.8 m/s 34.2 mm 12.2° 1023.2 hPa 7.2 m/s 10.5° 1019.8 hPa 2.1 m/s 34.2 mm
14:00 13.1° 1023.7 hPa 6.8 m/s 34.2 mm 13.3° 1024.0 hPa 7.2 m/s 10.9° 1020.2 hPa 3.0 m/s 34.2 mm
17:00 12.8° 1023.6 hPa 5.9 m/s 34.2 mm 12.9° 1023.9 hPa 6.2 m/s 11.2° 1020.1 hPa 2.7 m/s 34.2 mm
20:00 12.4° 1023.5 hPa 4.9 m/s 34.2 mm 12.5° 1023.8 hPa 5.1 m/s 11.4° 1020.6 hPa 2.9 m/s 34.2 mm
23:00 11.3° 1023.5 hPa 3.7 m/s 34.3 mm 11.3° 1023.6 hPa 3.7 m/s 11.0° 1021.4 hPa 3.9 m/s 34.3 mm
 03:25     23:42    Daglengte: 20:17 Maandag 24 Jun
02:00 10.1° 1023.4 hPa 2.5 m/s 34.3 mm 10.1° 1023.5 hPa 2.3 m/s 10.3° 1022.0 hPa 4.7 m/s 34.3 mm
08:00 10.8° 1022.8 hPa 3.2 m/s 34.4 mm 10.9° 1022.8 hPa 3.2 m/s 9.5° 1022.9 hPa 3.3 m/s 34.4 mm
14:00 14.1° 1023.4 hPa 7.0 m/s 34.4 mm 14.5° 1023.4 hPa 7.5 m/s 9.8° 1023.1 hPa 1.8 m/s 34.4 mm
20:00 13.9° 1021.8 hPa 5.8 m/s 34.4 mm 14.2° 1021.7 hPa 6.2 m/s 10.4° 1023.2 hPa 1.8 m/s 34.4 mm
 03:26     23:42    Daglengte: 20:16 Dinsdag 25 Jun
02:00 11.0° 1022.6 hPa 3.8 m/s 34.4 mm 11.2° 1022.5 hPa 4.0 m/s 9.4° 1023.2 hPa 1.6 m/s 34.4 mm
08:00 11.3° 1021.8 hPa 3.6 m/s 34.4 mm 11.5° 1021.8 hPa 3.6 m/s 9.6° 1022.0 hPa 3.6 m/s 34.4 mm
14:00 13.4° 1023.0 hPa 7.0 m/s 34.4 mm 13.6° 1023.2 hPa 7.0 m/s 10.7° 1021.1 hPa 7.1 m/s 34.4 mm
20:00 12.6° 1024.3 hPa 6.5 m/s 34.4 mm 12.8° 1024.7 hPa 6.4 m/s 10.3° 1019.7 hPa 7.7 m/s 34.4 mm
 03:27     23:42    Daglengte: 20:15 Woensdag 26 Jun
02:00 10.3° 1024.7 hPa 4.5 m/s 34.4 mm 10.4° 1025.3 hPa 4.3 m/s 9.4° 1018.3 hPa 7.1 m/s 34.4 mm
08:00 10.7° 1022.2 hPa 5.2 m/s 34.4 mm 10.8° 1022.8 hPa 4.9 m/s 9.8° 1015.8 hPa 8.0 m/s 34.4 mm
14:00 11.1° 1013.5 hPa 9.8 m/s 34.4 mm 11.1° 1013.5 hPa 9.8 m/s 34.4 mm
20:00 14.3° 1018.6 hPa 2.1 m/s 0.6 mm
 03:28     23:41    Daglengte: 20:13 Donderdag 27 Jun
02:00 10.7° 1017.9 hPa 0.3 m/s 0.5 mm
08:00 12.8° 1015.8 hPa 0.3 m/s 0.6 mm
14:00 16.1° 1014.1 hPa 1.4 m/s 0.5 mm
20:00 14.7° 1012.7 hPa 1.5 m/s 0.4 mm
 03:29     23:40    Daglengte: 20:11 Vrijdag 28 Jun
02:00 11.1° 1012.2 hPa 0.3 m/s 0.4 mm
08:00 12.9° 1010.8 hPa 0.8 m/s 1.2 mm
14:00 15.5° 1010.1 hPa 2.2 m/s 0.7 mm
20:00 14.2° 1009.6 hPa 2.3 m/s 0.6 mm
 03:30     23:39    Daglengte: 20:09 Zaterdag 29 Jun
02:00 10.9° 1009.6 hPa 0.6 m/s 0.7 mm
08:00 12.5° 1009.0 hPa 0.9 m/s 0.6 mm
14:00 15.1° 1009.0 hPa 2.1 m/s 0.6 mm
20:00 14.1° 1009.1 hPa 2.2 m/s 0.4 mm
 03:31     23:38    Daglengte: 20:07 Zondag 30 Jun
02:00 11.0° 1009.5 hPa 0.4 m/s 0.3 mm
08:00 13.0° 1008.7 hPa 0.5 m/s 0.6 mm
14:00 15.6° 1008.3 hPa 2.1 m/s 0.9 mm
20:00 14.4° 1008.5 hPa 1.9 m/s 0.9 mm
 03:33     23:37    Daglengte: 20:04 Maandag 01 Jul
02:00 11.0° 1009.2 hPa 0.7 m/s 1.1 mm
08:00 12.9° 1009.2 hPa 1.0 m/s 0.4 mm
14:00 15.4° 1009.7 hPa 2.3 m/s 0.6 mm
20:00 13.8° 1010.3 hPa 2.2 m/s 0.5 mm
FMI Hirlam - 7.5 km EWN WRFDA - 12 km DWD ICON - 7 km GFS - 25 km Basiskaart